Regional Weather Roundup
Issued by NWS

Home | Current Version | Previous Version | Text Only | Print | Product List | Glossary Off
Versions: 1 2 3 4 5 6 7 8 9 10 11 12 13 14 15 16 17 18 19 20 21 22 23 24 25 26 27 28 29 30 31 32 33 34 35 36 37 38 39 40 41 42 43 44 45 46 47 48 49 50

000
ASUS43 KDTX 281401
RWRMI
MICHIGAN HOURLY REGIONAL WEATHER ROUNDUP
NATIONAL WEATHER SERVICE DETROIT/PONTIAC MI
1000 AM EDT FRI AUG 28 2015

NOTE: "FAIR" INDICATES FEW OR NO CLOUDS BELOW 12,000 FEET WITH NO
SIGNIFICANT WEATHER AND/OR OBSTRUCTION TO VISIBILITY.

MIZ047>049-052>055-059>063-066>070-074>076-081>083-281500-
SOUTHEAST LOWER MICHIGAN

CITY           SKY/WX    TMP DP  RH WIND       PRES   REMARKS
ADRIAN         MOSUNNY   63  57  81 S8        30.22S
ALMA           SUNNY     59  58  98 S5        30.20S
ANN ARBOR      CLOUDY    59  57  93 S7        30.21S
BAD AXE        SUNNY     63  56  80 SW7       30.21R
CARO           SUNNY     63  58  83 S6        30.20S
DETROIT CITY   CLOUDY    64  55  72 CALM      30.21F
DETROIT        PTSUNNY   63  57  81 CALM      30.22S
FLINT          SUNNY     63  57  81 S7        30.21S
GROSSE ILE     MOSUNNY   64  59  82 CALM      30.20F
HILLSDALE      SUNNY     64  61  90 S6        30.21S
HOWELL         SUNNY     62  59  88 S6        30.21S

CITY           SKY/WX    TMP DP  RH WIND       PRES   REMARKS
JACKSON        MOSUNNY   62  57  83 S5        30.20F
LAMBERTVILLE   SUNNY     67  58  75 S3        30.21S
LANSING        MOSUNNY   62  56  80 S3        30.20F
LAPEER         FAIR      63  57  82 SW5       30.22S
MASON          PTSUNNY   58  57  99 S6        30.21S
MONROE         MOSUNNY   62  57  85 CALM      30.20F
MT. CLEMENS    MOSUNNY   64  59  85 CALM      30.20R
PONTIAC        MOSUNNY   62  57  83 S3        30.21S
PORT HOPE        N/A     64  56  75 SW6       30.18S
PORT HURON     PTSUNNY   61  59  94 CALM      30.22R
TRI CITIES     SUNNY     63  55  75 SW8       30.21S
MIDLAND        FAIR      63  56  77 SW6       30.19S
TROY           SUNNY     64  57  79 CALM      30.23S
SAGINAW HB     SUNNY     63  57  82 SW6       30.19F
$$
MIZ043>046-050>051-056>058-064>065-071>073-077>080-281500-
SOUTHWEST LOWER MICHIGAN

CITY           SKY/WX    TMP DP  RH WIND       PRES   REMARKS
BATTLE CREEK   SUNNY     64  57  78 S8        30.19F
BENTON HARBOR  SUNNY     64  58  80 SE6       30.17R
BIG RAPIDS     MOSUNNY   60  59  97 S3        30.18F
COLDWATER      SUNNY     64  59  86 S5        30.19S
FREMONT        FAIR      60  58  96 S3        30.17F
HOLLAND        SUNNY     63  57  81 S6        30.18S
GRAND RAPIDS   PTSUNNY   63  58  83 S8        30.18S
IONIA          FAIR      62  59  87 S5        30.19S
KALAMAZOO      MOSUNNY   63  57  81 S8        30.19S
LUDINGTON      MOSUNNY   64  59  86 SE3       30.16S
MARSHALL       SUNNY     63  58  83 S3        30.19F
MOUNT PLEASANT MOSUNNY   65  57  73 SW6       30.19R
MUSKEGON       PTSUNNY   63  56  78 S5        30.17S
SOUTH HAVEN    SUNNY     64  58  80 S7        30.17S
$$
MIZ016>042-281500-
NORTHERN LOWER MICHIGAN

CITY           SKY/WX    TMP DP  RH WIND       PRES   REMARKS
ALPENA         SUNNY     64  57  78 SW7       30.16S
BEAVER ISLAND  CLOUDY    66  58  77 SW12      30.12S
BELLAIRE       PTSUNNY   63  57  80 SW6       30.16S
CADILLAC       SUNNY     61  56  84 SW9       30.17F
CHARLEVOIX     PTSUNNY   65  61  86 SW9       30.16S
FRANKFORT      CLOUDY    66  62  86 S3        30.14F
GAYLORD        SUNNY     62  57  83 SW13      30.17R
GRAYLING       CLOUDY    62  56  80 SW6       30.18S
HARBOR SPRINGS PTSUNNY   62  58  88 CALM      30.14S
HOUGHTON LAKE  SUNNY     62  56  80 SW8       30.19S
MANISTEE       MOSUNNY   61  55  82 SE5       30.16S
OSCODA         MOSUNNY   64  58  82 SW7       30.18S
PELLSTON       MOSUNNY   64  58  80 SW10      30.14R
ROGERS CITY    SUNNY     65  58  78 SW8       30.14F
TRAVERSE CITY  MOSUNNY   67  59  75 SW6       30.14S
$$
MIZ007>008-015-281500-
EASTERN UPPER MICHIGAN

CITY           SKY/WX    TMP DP  RH WIND       PRES   REMARKS
KINROSS        CLOUDY    64  63  94 SW5       30.11R
MACKINAC ISLAN MOSUNNY   64  60  86 SW6       30.12R
NEWBERRY       CLOUDY    63  60  91 S12G17    30.09R FOG
S. S. MARIE    MOSUNNY   64  60  87 CALM      30.09F
$$
MIZ004>006-011>014-085-281500-
CENTRAL UPPER MICHIGAN

CITY           SKY/WX    TMP DP  RH WIND       PRES   REMARKS
MANISTIQUE     CLOUDY    65  60  86 SW9       30.09S
ESCANABA       MOSUNNY   64  59  82 S8        30.08S
MENOMINEE      MOSUNNY   64  55  72 SW9       30.09S
SAWYER-GWINN   SUNNY     63  57  82 SW7       30.07S
$$
MIZ001>003-009>011-084-281500-
WESTERN UPPER MICHIGAN

CITY           SKY/WX    TMP DP  RH WIND       PRES   REMARKS
IRON MOUNTAIN  MOSUNNY   63  58  83 S8        30.06F
HOUGHTON       PTSUNNY   62  58  86 S3        30.00F
COPPER HARBOR    N/A     64  57  78 SW8       29.98S
IRONWOOD       PTSUNNY   64  61  88 SW9       29.97F
$$

ABBREVIATIONS USED IN REMARKS
   TC - TEMPERATURE IN CELSIUS
  WCI - WIND CHILL INDEX
   HX - HEAT INDEX
  VSB - VISIBILITY



USA.gov is the U.S. government's official web portal to all federal, state and local government web resources and services.